STARLINK-4492 (53410 NORAD) Tracking and Keplerian Element Data

This shows tracking and keplerian element data for the satellite.

Feedback or suggestion? Click here.




ElementValue
Catalog53410
NameSTARLINK-4492
Epoch Orbit797
Epoch Day270.25001157
Epoch Year2022
RAAN11.413
Inclination53.2167
Eccentricity0.0001921
Argument of Perigee47.8696
Mean Anonmoly217.7414
Mean Motion15.49872326
Decay Rate0.00042804
L11 53410U 22097Y 22270.25001157 .00042804 00000+0 75832-3 0 9992
L22 53410 53.2167 11.4130 0001921 47.8696 217.7414 15.49872326 7978

Live tracking and technical data element details for STARLINK-4492 (NORAD 53410). STARLINK-4492 can be tracked NOW for your location showing map with azimuth and elevation plus other details from your city location.

Track the satellite on the map from your city or location and see movement details for azimuth, elevation, latitude, longitude, range, height, and movement on the map or in text.







IsCatalogInMostPopularTable: catalog: 53410, numindb: 3
Update: records affected: 1



GetName: 53410 STARLINK-4492

Hit Count: updated at: Fri, 30 Sep 2022 03:14:47 GMT